Home   Weather   Burnaby   Past weeks

Flag for Canada Past Weather in Burnaby, British Columbia, Canada — Yesterday and Last 2 Weeks

Now
48 °F

Passing clouds.


Feels Like: 46 °F
Forecast: 40 / 60 °F
Wind: 6 mph from Northeast

Location: Vancouver International Airport

Current Time: Sep 30, 2016 at 1:24:10 AM

Latest Report: Sep 30, 2016 at 1:00 AM


Visibility: 30 mi

Pressure: 30.05 "Hg

Humidity: 87%

Dew Point: 45 °F

Location of BurnabyLocation

Past Weather in Burnaby — Graph

°F

Burnaby Temperature Yesterday

Maximum temperature yesterday: 59 °F (at 1:00 PM)
Minimum temperature yesterday: 46 °F (at 1:00 AM)
Average temperature yesterday: 52 °F

High & Low Weather Summary for the Past Weeks

 TemperatureHumidityPressure
High68 °F (Sep 16, 12:00 PM)100% (Sep 17, 9:00 AM)30.43 "Hg (Sep 17, 9:00 AM)
Low46 °F (Sep 29, 1:00 AM)52% (Sep 22, 5:00 PM)29.80 "Hg (Sep 17, 11:00 AM)
Average57 °F84%30.09 "Hg
* Reported Sep 15 12:00 AM — Sep 30 12:00 AM, Burnaby, Weather by CustomWeather, © 2016

Note: Actual official high and low records may vary slightly from our data, if they occured in-between our weather recording intervals... More about our weather records

Advertising

Burnaby Weather History for the Previous 24 Hours

Scroll right to see more
 ConditionsComfort  
Time TempWeatherWind HumidityBarometerVisibility
12:00 AM
Fri, Sep 30
46 °FPassing clouds.5 mph93%30.05 "Hg30 mi
11:00 PM
Thu, Sep 29
50 °FPassing clouds.3 mph88%30.05 "Hg30 mi
10:00 PM50 °FPassing clouds.6 mph88%30.05 "Hg30 mi
9:00 PM52 °FPassing clouds.3 mph77%30.05 "Hg30 mi
8:00 PM54 °FPartly cloudy.3 mph82%30.06 "Hg30 mi
7:00 PM54 °FPassing clouds.No wind82%30.05 "Hg30 mi
6:00 PM54 °FBroken clouds.6 mph82%30.05 "Hg30 mi
5:00 PM55 °FMore clouds than sun.6 mph82%30.05 "Hg30 mi
4:00 PM55 °FBroken clouds.9 mph82%30.05 "Hg30 mi
3:00 PM57 °FScattered clouds.12 mph82%30.06 "Hg30 mi
2:00 PM59 °FScattered clouds.10 mph77%30.07 "Hg30 mi
1:00 PM59 °FScattered clouds.10 mph72%30.08 "Hg30 mi
12:00 PM57 °FScattered clouds.13 mph77%30.09 "Hg30 mi
11:00 AM55 °FScattered clouds.14 mph82%30.09 "Hg30 mi
10:00 AM54 °FBroken clouds.10 mph88%30.09 "Hg30 mi
9:00 AM52 °FMore clouds than sun.3 mph88%30.08 "Hg30 mi
8:00 AM48 °FHigh level clouds.3 mph94%30.07 "Hg30 mi
7:00 AM46 °FHigh level clouds.3 mph93%30.06 "Hg30 mi
6:00 AM46 °FPassing clouds.5 mph93%30.06 "Hg30 mi
5:00 AM48 °FClear.3 mph100%30.05 "Hg30 mi
4:00 AM50 °FClear.9 mph100%30.06 "Hg30 mi
3:00 AM48 °FPassing clouds.6 mph94%30.06 "Hg30 mi
2:00 AM48 °FClear.5 mph94%30.05 "Hg30 mi
1:00 AM46 °FClear.3 mph100%30.04 "Hg30 mi
Weather by CustomWeather, © 2016

See weather overviewHow to use our weather pages